Weather History for Farmville, VA

Change the Weather History Date:

Wednesday, July 10, 2013

  Actual Average Record
Temperature  
Mean Temperature 82 °F -  
Max Temperature 91 °F 89 °F 104 °F (1936)
Min Temperature 73 °F 66 °F 49 °F (1961)
Cooling Degree Days 17    
Growing Degree Days 32 (Base 50)    
Moisture  
Dew Point 73 °F    
Average Humidity 84    
Maximum Humidity 100    
Minimum Humidity 52    
Precipitation  
Precipitation 0.72 in - - ()
Sea Level Pressure  
Sea Level Pressure 29.99 in    
Wind  
Wind Speed 5 mph (SSW)    
Max Wind Speed 10 mph    
Max Gust Speed 17 mph    
Visibility 9 miles    
Events Rain , Thunderstorm    
Averages and records for this station are not official NWS values.
T = Trace of Precipitation, MM = Missing Value Source: NWS Daily Summary

Daily Weather History Graph

Daily Weather History Graph

Search for Another Location

Airport:

Trip Planner

Search our weather history database for the weather conditions in past years. The results will help you decide how hot, cold, wet, or windy it might be!

Date:

Astronomy

Jul. 10, 2013 Rise Set
Actual Time 6:01 AM EDT 8:36 PM EDT
Civil Twilight 5:31 AM EDT 9:06 PM EDT
Nautical Twilight 4:53 AM EDT 9:44 PM EDT
Astronomical Twilight 4:11 AM EDT 10:26 PM EDT
Moon 8:17 AM EDT (7/10) 9:49 PM EDT (7/10)
Length of Visible Light 15h 35m
Length of Day
14h 34m
Waxing Crescent, 5% of the Moon is Illuminated
Jul 10
Waxing Crescent
Jul 15
First Quarter
Jul 22
Full
Jul 29
Last Quarter
Aug 6
New

Hourly Weather History & Observations

Time (EDT) Temp. Heat Index Dew Point Humidity Pressure Visibility Wind Dir Wind Speed Gust Speed Precip Events Conditions
12:15 AM 75.2 °F - 73.4 °F 94% 30.06 in 7.0 mi South 3.5 mph - N/A   Clear
12:35 AM 75.2 °F - 75.2 °F 100% 30.06 in 7.0 mi SSW 4.6 mph - N/A   Clear
12:55 AM 75.2 °F - 75.2 °F 100% 30.06 in 7.0 mi SSW 3.5 mph - N/A   Clear
1:15 AM 75.2 °F - 75.2 °F 100% 30.05 in 7.0 mi SSW 5.8 mph - N/A   Scattered Clouds
1:35 AM 75.2 °F - 75.2 °F 100% 30.04 in 7.0 mi SSW 4.6 mph - N/A   Scattered Clouds
1:55 AM 75.2 °F - 73.4 °F 94% 30.03 in 10.0 mi SSW 5.8 mph - N/A   Clear
2:15 AM 75.2 °F - 73.4 °F 94% 30.04 in 10.0 mi South 5.8 mph - N/A   Clear
2:35 AM 75.2 °F - 73.4 °F 94% 30.03 in 10.0 mi SSW 6.9 mph - N/A   Clear
2:55 AM 75.2 °F - 73.4 °F 94% 30.03 in 10.0 mi SSW 6.9 mph - N/A   Scattered Clouds
3:15 AM 75.2 °F - 73.4 °F 94% 30.02 in 10.0 mi SSW 8.1 mph - N/A   Mostly Cloudy
3:55 AM 73.4 °F - 71.6 °F 94% 30.03 in 10.0 mi SSW 5.8 mph - N/A   Scattered Clouds
4:15 AM 73.4 °F - 71.6 °F 94% 30.02 in 10.0 mi SSW 4.6 mph - N/A   Clear
4:35 AM 73.4 °F - 71.6 °F 94% 30.03 in 10.0 mi SSW 4.6 mph - N/A   Clear
4:55 AM 73.4 °F - 71.6 °F 94% 30.02 in 10.0 mi SSW 6.9 mph - N/A   Scattered Clouds
5:15 AM 73.4 °F - 71.6 °F 94% 30.02 in 10.0 mi SSW 4.6 mph - N/A   Mostly Cloudy
5:35 AM 73.4 °F - 71.6 °F 94% 30.02 in 10.0 mi South 5.8 mph - N/A   Mostly Cloudy
5:55 AM 73.4 °F - 71.6 °F 94% 30.02 in 10.0 mi SSW 5.8 mph - N/A   Overcast
6:15 AM 73.4 °F - 71.6 °F 94% 30.02 in 10.0 mi SSW 5.8 mph - N/A   Overcast
6:35 AM 73.4 °F - 71.6 °F 94% 30.02 in 10.0 mi SSW 6.9 mph - N/A   Overcast
6:55 AM 73.4 °F - 73.4 °F 100% 30.02 in 10.0 mi SSW 5.8 mph - N/A   Overcast
7:15 AM 75.2 °F - 73.4 °F 94% 30.03 in 10.0 mi SSW 5.8 mph - N/A   Overcast
7:35 AM 75.2 °F - 73.4 °F 94% 30.03 in 10.0 mi SSW 5.8 mph - N/A   Overcast
7:55 AM 77.0 °F - 73.4 °F 89% 30.02 in 10.0 mi SW 5.8 mph - N/A   Mostly Cloudy
8:15 AM 78.8 °F - 73.4 °F 83% 30.02 in 10.0 mi SW 8.1 mph - N/A   Scattered Clouds
8:35 AM 78.8 °F - 73.4 °F 83% 30.02 in 10.0 mi SSW 9.2 mph - N/A   Clear
8:55 AM 78.8 °F - 73.4 °F 83% 30.02 in 10.0 mi SW 6.9 mph - N/A   Clear
9:15 AM 80.6 °F 85.4 °F 73.4 °F 79% 30.02 in 10.0 mi SW 6.9 mph - N/A   Clear
9:35 AM 80.6 °F 85.4 °F 73.4 °F 79% 30.03 in 10.0 mi SW 4.6 mph - N/A   Clear
9:55 AM 82.4 °F 89.5 °F 75.2 °F 79% 30.02 in 10.0 mi SW 5.8 mph - N/A   Scattered Clouds
10:15 AM 84.2 °F 92.3 °F 75.2 °F 74% 30.02 in 10.0 mi WNW 3.5 mph - N/A   Scattered Clouds
10:35 AM 84.2 °F 92.3 °F 75.2 °F 74% 30.02 in 10.0 mi SSW 5.8 mph - N/A   Clear
10:55 AM 84.2 °F 92.3 °F 75.2 °F 74% 30.01 in 10.0 mi South 5.8 mph - N/A   Clear
11:15 AM 86.0 °F 93.4 °F 73.4 °F 66% 30.01 in 10.0 mi SSW 6.9 mph - N/A   Clear
11:35 AM 86.0 °F 91.8 °F 71.6 °F 62% 30.02 in 10.0 mi SW 5.8 mph - N/A   Clear
11:55 AM 87.8 °F 93.8 °F 71.6 °F 58% 30.02 in 10.0 mi SW 5.8 mph - N/A   Clear
12:15 PM 87.8 °F 93.8 °F 71.6 °F 58% 30.02 in 10.0 mi SSW 5.8 mph - N/A Thunderstorm Clear
12:35 PM 87.8 °F 95.6 °F 73.4 °F 62% 30.01 in 10.0 mi South 6.9 mph - N/A   Scattered Clouds
12:55 PM 87.8 °F 95.6 °F 73.4 °F 62% 30.01 in 10.0 mi SW 5.8 mph - N/A   Scattered Clouds
1:15 PM 87.8 °F 95.6 °F 73.4 °F 62% 30.00 in 10.0 mi SSW 5.8 mph - N/A   Scattered Clouds
1:35 PM 87.8 °F 95.6 °F 73.4 °F 62% 29.99 in 10.0 mi SSE 5.8 mph - N/A   Scattered Clouds
1:55 PM 87.8 °F 95.6 °F 73.4 °F 62% 29.98 in 10.0 mi SSW 6.9 mph - N/A   Mostly Cloudy
2:15 PM 87.8 °F 95.6 °F 73.4 °F 62% 29.97 in 10.0 mi South 3.5 mph - N/A   Scattered Clouds
2:35 PM 89.6 °F 98.2 °F 73.4 °F 59% 29.96 in 10.0 mi South 9.2 mph - N/A   Mostly Cloudy
2:55 PM 89.6 °F 96.2 °F 71.6 °F 55% 29.95 in 10.0 mi SSW 8.1 mph - N/A   Mostly Cloudy
3:15 PM 89.6 °F 96.2 °F 71.6 °F 55% 29.94 in 10.0 mi South 9.2 mph - N/A   Scattered Clouds
3:35 PM 91.4 °F 98.4 °F 71.6 °F 52% 29.93 in 10.0 mi South 10.4 mph - N/A   Scattered Clouds
3:55 PM 89.6 °F 96.2 °F 71.6 °F 55% 29.93 in 10.0 mi SW 9.2 mph - N/A   Mostly Cloudy
4:15 PM 87.8 °F 93.8 °F 71.6 °F 58% 29.93 in 10.0 mi SW 9.2 mph 16.1 mph N/A Thunderstorm Thunderstorm
4:35 PM 84.2 °F 89.6 °F 71.6 °F 66% 29.93 in 10.0 mi SW 4.6 mph - N/A   Scattered Clouds
4:55 PM 82.4 °F 89.5 °F 75.2 °F 79% 29.94 in 7.0 mi SW 9.2 mph 17.3 mph 0.01 in Rain Heavy Rain
5:15 PM 77.0 °F - 73.4 °F 89% 29.93 in 5.0 mi Calm Calm - 0.21 in Rain , Thunderstorm Heavy Thunderstorms and Rain
5:35 PM 77.0 °F - 73.4 °F 89% 29.92 in 10.0 mi Calm Calm - 0.21 in   Scattered Clouds
5:55 PM 77.0 °F - 75.2 °F 94% 29.92 in 7.0 mi Calm Calm - N/A Thunderstorm Clear
6:15 PM 78.8 °F - 75.2 °F 89% 29.94 in 10.0 mi North 4.6 mph - N/A   Clear
6:35 PM 78.8 °F - 75.2 °F 89% 29.92 in 10.0 mi North 3.5 mph - N/A   Clear
6:55 PM 78.8 °F - 75.2 °F 89% 29.92 in 10.0 mi Calm Calm - N/A   Clear
7:15 PM 77.0 °F - 75.2 °F 94% 29.94 in 7.0 mi WNW 3.5 mph - N/A Thunderstorm Thunderstorm
7:35 PM 77.0 °F - 75.2 °F 94% 29.95 in 7.0 mi North 4.6 mph - N/A Rain Light Rain
7:55 PM 77.0 °F - 75.2 °F 94% 29.96 in 7.0 mi North 3.5 mph - N/A Rain Light Rain
8:15 PM 75.2 °F - 75.2 °F 100% 29.95 in 7.0 mi Calm Calm - 0.04 in Rain Rain
8:35 PM 75.2 °F - 75.2 °F 100% 29.94 in 7.0 mi Calm Calm - 0.05 in Rain , Thunderstorm Light Thunderstorms and Rain
8:55 PM 75.2 °F - 75.2 °F 100% 29.94 in 4.0 mi South 3.5 mph - 0.07 in Rain , Thunderstorm Heavy Thunderstorms and Rain
9:15 PM 75.2 °F - 73.4 °F 94% 29.95 in 10.0 mi ESE 3.5 mph - 0.10 in Rain , Thunderstorm Light Thunderstorms and Rain
9:35 PM 75.2 °F - 73.4 °F 94% 29.95 in 7.0 mi NW 3.5 mph - 0.10 in Thunderstorm Thunderstorm
9:55 PM 75.2 °F - 75.2 °F 100% 29.96 in 5.0 mi Calm Calm - 0.04 in Rain , Thunderstorm Light Thunderstorms and Rain
10:15 PM 75.2 °F - 73.4 °F 94% 29.96 in 10.0 mi SSE 6.9 mph - 0.31 in Rain , Thunderstorm Light Thunderstorms and Rain
10:35 PM 75.2 °F - 73.4 °F 94% 29.97 in 10.0 mi South 9.2 mph - 0.31 in Rain , Thunderstorm Light Thunderstorms and Rain
10:55 PM 73.4 °F - 73.4 °F 100% 29.96 in 10.0 mi Calm Calm - 0.01 in Rain , Thunderstorm Rain
11:15 PM 73.4 °F - 73.4 °F 100% 29.97 in 7.0 mi SSW 5.8 mph - 0.01 in   Light Drizzle
11:35 PM 73.4 °F - 73.4 °F 100% 29.96 in 10.0 mi South 6.9 mph - 0.02 in   Light Drizzle
11:55 PM 73.4 °F - 73.4 °F 100% 29.95 in 10.0 mi South 6.9 mph - N/A   Mostly Cloudy